User: anonymous   Login
Location: Roanoke
(37.2710°N, 79.9420°W)
Time: 06:44:04
(UTC-04:00)
Language:

Cosmos 1441 Rocket - Orbit

View from above orbital plane
View from above orbital plane
View from above satellite
View from above satellite

Ground track
Ground track

The orbit data is extracted from the following two-line orbital elements,

1 13819U 83010B   16206.07266810  .00001085  00000-0  56902-4 0  9999
2 13819  81.1159 182.5036 0033024 354.1606   5.9231 15.14472889824059
Epoch (UTC): 24 July 2016 01:44:38
Eccentricity: 0.0033024
inclination: 81.1159°
perigee height: 500 km
apogee height: 545 km
right ascension of ascending node: 182.5036°
argument of perigee: 354.1606°
revolutions per day: 15.14472889
mean anomaly at epoch: 5.9231°
orbit number at epoch: 82405

The dashed part of the orbit path shows where the satellite is in the earth's shadow,  

DLR